Regional Weather Roundup
Issued by NWS

Home | Current Version | Previous Version | Text Only | Print | Product List | Glossary On
Versions: 1 2 3 4 5 6 7 8 9 10 11 12 13 14 15 16 17 18 19 20 21 22 23 24 25 26 27 28 29 30 31 32 33 34 35 36 37 38 39 40 41 42 43 44 45 46 47 48 49 50
000
ASUS43 KMKX 181200
RWRWI

WISCONSIN REGIONAL WEATHER ROUNDUP
NATIONAL WEATHER SERVICE MILWAUKEE/SULLIVAN WI
600 AM CST THU DEC 18 2014

NOTE: "FAIR" INDICATES FEW OR NO CLOUDS BELOW 12,000 FEET WITH NO
SIGNIFICANT WEATHER AND/OR OBSTRUCTIONS TO VISIBILITY.

WIZ001-002-006>008-014>016-023>028-181300-
NORTHWEST WISCONSIN

CITY           SKY/WX    TMP DP  RH WIND       PRES   REMARKS
SUPERIOR ARPT  CLOUDY    21  19  91 W3        30.32F
ASHLAND        CLOUDY    23  20  88 CALM      30.31F
6HR MIN TEMP:  22; 6HR MAX TEMP:  24;

HAYWARD        CLOUDY    21  17  84 NE3       30.28S
6HR MIN TEMP:  19; 6HR MAX TEMP:  21;

SIREN          CLOUDY    19  16  89 CALM      30.30F
CUMBERLAND     CLOUDY    21  18  86 N3        30.27F
RICE LAKE      CLOUDY    22  18  85 CALM      30.30S
CHETEK         CLOUDY    21  18  88 CALM      30.29F
LADYSMITH      CLOUDY    22  19  87 E3        30.29S
EAU CLAIRE     CLOUDY    22  18  85 N3        30.28F
MENOMONIE      CLOUDY    22  18  85 N6        30.28F WCI  15
NEW RICHMOND   CLOUDY    20  18  91 NE6       30.28F WCI  13
OSCEOLA        CLOUDY    19  17  91 N5        30.32F WCI  12
$$

WIZ003>005-009-010-017-018-181300-
NORTH CENTRAL WISCONSIN

CITY           SKY/WX    TMP DP  RH WIND       PRES   REMARKS
MANITOWISH WTR CLOUDY    18  17  93 NE7       30.24S WCI   9
ARBOR VITAE    CLOUDY    22  19  89 NE7       30.23F WCI  13
WOODRUFF       CLOUDY    22  19  89 NE7       30.23F WCI  13
RHINELANDER    CLOUDY    19  17  92 E7        30.23S WCI  10
6HR MIN TEMP:  19; 6HR MAX TEMP:  21;

EAGLE RIVER    CLOUDY    20  18  93 NE6       30.23S WCI  12
LAND O LAKES   CLOUDY    21  18  91 NE6       30.24S WCI  13
PHILLIPS       CLOUDY    21  18  89 NE5       30.24S WCI  15
TOMAHAWK       CLOUDY    21  17  86 N3        30.25R
MEDFORD        CLOUDY    21  18  89 N5        30.24S WCI  14
MERRILL        CLOUDY    23  19  86 CALM      30.24S
$$

WIZ029-030-035-036-043>047-181300-
CENTRAL WISCONSIN

CITY           SKY/WX    TMP DP  RH WIND       PRES   REMARKS
WAUSAU         CLOUDY    24  19  81 N3        30.23F
6HR MIN TEMP:  23; 6HR MAX TEMP:  24;

MOSINEE        CLOUDY    23  21  93 NE5       30.25F WCI  17
MARSHFIELD     CLOUDY    22  19  89 NW7       30.24F WCI  13
6HR MIN TEMP:  20; 6HR MAX TEMP:  22;

STEVENS POINT  CLOUDY    23  19  84 CALM      30.26S
WAUPACA        CLOUDY    27  21  79 W5        30.27S WCI  21
WAUTOMA        NOT AVBL
WISC RAPIDS    CLOUDY    22  17  81 W5        30.27F WCI  16
6HR MIN TEMP:  19; 6HR MAX TEMP:  22;

CAMP DOUGLAS   NOT AVBL
$$

WIZ011>013-019>022-031-037>040-048>050-181300-
NORTHEAST WISCONSIN

CITY           SKY/WX    TMP DP  RH WIND       PRES   REMARKS
ANTIGO         CLOUDY    21  19  89 NE9       30.22S WCI  11
SHAWANO        CLOUDY    28  23  79 NE5       30.27R WCI  23
OCONTO         CLOUDY    26  21  82 N5        30.27R WCI  21
STURGEON BAY   CLOUDY    27  19  74 N15       30.26R WCI  15
6HR MIN TEMP:  27; 6HR MAX TEMP:  28;

GREEN BAY      CLOUDY    27  22  81 N9        30.26S WCI  18
6HR MIN TEMP:  27; 6HR MAX TEMP:  28;

MANITOWOC      NOT AVBL
APPLETON       CLOUDY    25  21  86 VRB6      30.25S WCI  18
CLINTONVILLE   CLOUDY    28  21  74 N6        30.26S WCI  22
OSHKOSH        CLOUDY    25  19  78 NW6       30.25F WCI  18
6HR MIN TEMP:  22; 6HR MAX TEMP:  25;

$$

WIZ032>034-041-042-053>061-181300-
SOUTHWEST WISCONSIN

CITY           SKY/WX    TMP DP  RH WIND       PRES   REMARKS
LA CROSSE      CLOUDY    21  15  78 CALM      30.29F
6HR MIN TEMP:  17; 6HR MAX TEMP:  21;

SPARTA         CLOUDY    20  16  83 CALM      30.28F
VIROQUA        CLOUDY    18  16  93 CALM      30.23F
BOSCOBEL       CLEAR     13   9  84 CALM      30.30R
6HR MIN TEMP:  12; 6HR MAX TEMP:  15;

PRAIRIE DU CHI PTCLDY    16  13  89 CALM      30.30S
PLATTEVILLE    PTCLDY    13  11  91 CALM      30.28R
$$

WIZ056-057-062-063-064-067-068-181300-
SOUTH CENTRAL WISCONSIN

CITY           SKY/WX    TMP DP  RH WIND       PRES   REMARKS
REEDSBURG      CLOUDY    21  17  82 CALM      30.25F
BARABOO/DELLS  CLOUDY    21  16  79 CALM      30.24F
LONE ROCK      NOT AVBL
MINERAL POINT  CLEAR     18  14  86 CALM      30.24S
MADISON        CLOUDY    18  14  84 CALM      30.25F
6HR MIN TEMP:  15; 6HR MAX TEMP:  18;

MIDDLETON      MOCLDY    17  14  86 CALM      30.25F
WATERTOWN      CLOUDY    22  19  87 NW3       30.24F
MONROE         CLEAR     18  14  86 NW3       30.24R
JANESVILLE     NOT AVBL
$$

WIZ051-052-058>065-066-070>072-181300-
SOUTHEAST WISCONSIN

CITY           SKY/WX    TMP DP  RH WIND       PRES   REMARKS
MILWAUKEE      CLEAR     20  15  81 NW6       30.24F WCI  12
6HR MIN TEMP:  19; 6HR MAX TEMP:  21;

WAUKESHA       MOCLDY    18  16  93 W5        30.24F WCI  11
MILWAUKEE/TIMM MOCLDY    21  18  86 N6        30.25F WCI  14
RACINE         CLEAR     18  13  80 W6        30.26F WCI  10
6HR MIN TEMP:  17; 6HR MAX TEMP:  20;

BURLINGTON     CLEAR     15  12  89 W3        30.25F
KENOSHA        PTCLDY    17  14  88 W6        30.25F WCI   9
6HR MIN TEMP:  15; 6HR MAX TEMP:  20;

FOND DU LAC    CLOUDY    24  19  81 W6        30.25F WCI  17
6HR MIN TEMP:  22; 6HR MAX TEMP:  24; 6HR PCP: TRACE;

SHEBOYGAN      CLOUDY    25  20  81 NW7       30.24F WCI  17
6HR MIN TEMP:  23; 6HR MAX TEMP:  25;

WEST BEND      CLOUDY    23  19  86 W6        30.24F WCI  16
JUNEAU         CLOUDY    22  18  86 N7        30.25F WCI  13
$$

LSZ147-162-181300-
LAKE SUPERIOR

STATION/POSITION TIME  TEMP    WIND        PRES    WAVE
                       AIR SEA DIR/SP/G            HT/PER
                 (UTC) (F)     (DEG/KT/KT) (MB)    (FT/S)
DEVILS ISLAND    1100   27      60/  7/  9 1028.0F
PORT WING        1100   26      20/  4/  5 1026.8F
SAXON HARBOR     1100   25      CALM  /  2 1026.4S
$$

LMZ867-665-643>646-181300-
LAKE MICHIGAN

STATION/POSITION TIME  TEMP    WIND        PRES    WAVE
                       AIR SEA DIR/SP/G            HT/PER
                 (UTC) (F)     (DEG/KT/KT) (MB)    (FT/S)
CHAMBERS ISLAND  1100   28     340/ 19/ 22 1024.0F
NORTHPORT PIER   1100   28      10/ 16/ 18 1024.0S
SISTER BAY       1113           30/ 18/ 22   N/A
ALGOMA LAKESHORE 1114          340/  8/ 10   N/A
KEWAUNEE LAKESHO 1100   28     350/  6/ 11 1023.1R
SHEBOYGAN LAKESH 1100   26 34  300/  6/  7 1025.5R
PORT WASHINGTON  1100   26     290/  5/  7 1025.4R
MILWAUKEE LAKESH 1100   21     300/  9/ 12   N/A
KENOSHA   LAKESH 1100   19     260/  5/ 10 1024.4F
$$

TC  - TEMPERATURE IN CELSIUS
VSB - VISIBILITY IN STATUTE MILES
WCI - WIND CHILL INDEX
HX  - HEAT INDEX




USA.gov is the U.S. government's official web portal to all federal, state and local government web resources and services.